Location: Melbourne
(37.8666°S, 145.1333°E)
Time: 02:42:25
(UTC+11:00)

Iridium 21 - Visible Passes

Search period start: 01 November 2014 00:00
Search period end: 11 November 2014 00:00
Orbit: 776 x 779 km, 86.4° (Epoch: 30 October)

Date Brightness Start Highest point End Pass type
(mag) Time Alt. Az. Time Alt. Az. Time Alt. Az.
01 Nov 6.8 03:50:08 16° NNE 03:53:53 39° E 03:58:45 10° SSE visible
01 Nov 6.8 05:30:43 10° NW 05:34:42 22° WSW 05:38:45 10° SSW visible
02 Nov 7.7 03:17:03 11° NE 03:20:36 21° E 03:24:29 10° SSE visible
02 Nov 6.0 04:57:33 18° NW 05:00:58 40° W 05:05:57 10° SSW visible
03 Nov 8.3 02:46:08 10° E 02:47:27 11° ESE 02:48:45 10° ESE visible
03 Nov 5.4 04:24:26 27° N 04:27:22 76° W 04:32:41 10° S visible
04 Nov 6.0 03:51:17 28° NNE 03:53:54 57° E 03:59:04 10° S visible
04 Nov 7.2 05:32:03 10° WNW 05:35:00 15° WSW 05:37:59 10° SW visible
05 Nov 7.1 03:18:07 21° NE 03:20:32 30° E 03:25:06 10° SSE visible
05 Nov 6.5 04:58:36 19° WNW 05:01:11 28° W 05:05:41 10° SSW visible
06 Nov 7.9 02:44:55 13° ENE 02:47:18 17° E 02:50:31 10° SE visible
06 Nov 5.7 04:25:24 33° NW 04:27:30 52° W 04:32:39 10° S visible
07 Nov 5.5 03:52:12 44° N 03:53:56 84° E 03:59:15 10° S visible
08 Nov 6.4 03:18:57 35° NE 03:20:30 44° E 03:25:30 10° SSE visible
08 Nov 7.0 04:59:26 16° WNW 05:01:26 19° WSW 05:05:10 10° SSW visible
09 Nov 7.3 02:45:42 21° ENE 02:47:12 24° E 02:51:21 10° SSE visible
09 Nov 6.2 04:26:11 30° WNW 04:27:39 35° W 04:32:30 10° SSW visible
10 Nov 8.0 02:12:26 11° E 02:14:00 13° ESE 02:16:12 10° SE visible
10 Nov 5.5 03:52:55 52° NW 03:54:01 67° W 03:59:18 10° S visible
